SCP
0 0 0 0 0 0 0 0 0 0 0 0 0 0 0 0 0 0 0 0 0 0 0 0 0 0 0 0 0 0 0 0 0 0 0 0 0 0 0 0 0 0 0 0
0 0 0 0 0 0 0 0 0 0 0 0 0 0 0 0 0 0 0 0 0 0 0 0 0 0 0 0 0 0 0 0 0 0 0 0 0 0 0 0 0 0 0 0
0 0 0 0 0 0 0 0 0 0 0 0 0 0 0 0 0 0 0 0 0 0 0 0 0 0 0 0 0 0 0 0 0 0 0 0 0 0 0 0 0 0 0 0
0 0 0 0 0 0 0 0 0 0 0 0 0 0 0 0 0 0 0 0 0 0 0 0 0 0 0 0 0 0 0 0 0 0 0 0 0 0 0 0 0 1 1 1
0 0 0 0 0 0 0 0 0 0 0 0 0 0 0 0 0 0 0 0 0 0 0 0 0 0 0 0 0 0 0 0 0 0 0 0 0 0 0 0 0 1 1 1
0 0 0 0 0 0 0 0 0 0 0 0 0 0 0 0 0 0 0 0 0 0 0 0 0 0 0 0 0 0 0 0 0 0 0 0 0 0 0 0 0 1 1 1
0 0 0 0 0 0 0 0 0 0 0 0 0 0 0 0 0 0 0 0 0 0 0 0 0 0 0 0 0 0 0 0 0 0 0 0 0 0 0 0 0 1 1 0
0 0 0 0 0 0 0 0 0 0 0 0 0 0 0 0 0 0 0 0 0 0 0 0 0 0 0 0 0 0 0 0 0 0 0 0 0 0 0 0 0 0 0 0
0 0 0 0 0 0 0 0 0 0 0 0 0 0 0 0 0 0 0 0 0 0 0 0 0 0 0 0 0 0 0 0 0 0 0 0 0 0 0 0 0 0 0 0
0 0 0 0 0 0 0 0 0 0 0 0 0 0 0 0 0 0 0 0 0 0 0 0 0 0 0 0 0 0 0 0 0 0 0 0 0 0 0 0 0 0 0 0
0 0 0 0 0 0 0 0 0 0 0 0 0 0 0 0 0 0 0 0 0 0 0 0 0 0 0 0 0 0 0 0 0 0 0 0 0 0 0 0 0 0 0 0
0 0 0 0 0 0 0 0 0 0 0 0 0 0 0 0 0 0 0 0 0 0 0 0 0 0 0 0 0 0 0 0 0 0 0 0 0 0 0 0 0 0 0 0
0 0 0 0 0 0 0 0 0 0 0 0 0 0 0 0 0 0 0 0 0 0 0 0 0 0 0 0 0 0 0 0 0 0 0 0 0 0 0 0 0 0 0 0
0 0 0 0 0 0 0 0 0 0 0 0 0 0 0 0 0 0 0 0 0 0 0 0 0 0 0 0 0 0 0 0 0 0 0 0 0 0 0 0 0 0 0 0
0 0 0 0 0 0 0 0 0 0 0 0 0 0 0 0 0 0 0 0 0 0 0 0 0 0 0 0 0 0 0 0 0 0 0 0 0 0 0 0 0 0 0 0
0 0 0 0 0 0 0 0 0 0 0 0 0 0 0 0 0 0 0 0 0 0 0 0 0 0 0 0 0 0 0 0 0 0 0 0 0 0 0 0 0 0 0 0
0 0 0 0 0 0 0 0 0 0 0 0 0 0 0 0 0 0 0 0 0 0 0 0 0 0 0 0 0 0 0 0 0 0 0 0 0 0 0 0 0 0 0 0
0 0 0 0 0 0 0 0 0 0 0 0 0 0 0 0 0 0 0 0 0 0 0 0 0 0 0 0 0 0 0 0 0 0 0 0 0 0 0 0 0 0 0 0
0 0 0 0 0 0 0 0 0 0 0 0 0 0 0 0 0 0 0 0 0 0 0 0 0 0 0 0 0 0 0 0 0 0 0 0 0 0 0 0 0 0 0 0
0 0 0 0 0 0 0 0 0 0 0 0 0 0 0 0 0 0 0 0 0 0 0 0 0 0 0 0 0 0 0 0 0 0 0 0 0 0 0 0 0 0 0 0
0 0 0 0 0 0 0 0 0 0 0 0 0 0 0 0 0 0 0 0 0 0 0 0 0 0 0 0 0 0 0 0 0 0 0 0 0 0 0 0 0 0 0 0
0 0 0 0 0 0 0 0 0 0 0 0 0 0 0 0 0 0 0 0 0 0 0 0 0 0 0 0 0 0 0 0 0 0 0 0 0 0 0 0 0 0 0 0
0 0 0 0 0 0 0 0 0 0 0 0 0 0 0 0 0 0 0 0 0 0 0 0 0 0 0 0 0 0 0 0 0 0 0 0 0 0 0 0 0 0 0 0
0 0 0 0 0 0 0 0 0 0 0 0 0 0 0 0 0 0 0 0 0 0 0 0 0 0 0 0 0 0 0 0 0 0 0 0 0 0 0 0 0 0 0 0
0 0 0 0 0 0 0 0 0 0 0 0 0 0 0 0 0 0 0 0 0 0 0 0 0 0 0 0 0 0 0 0 0 0 0 0 0 0 0 0 0 0 0 0
0 0 0 0 0 0 0 0 0 0 0 0 0 0 0 0 0 0 0 0 0 0 0 0 0 0 0 0 0 0 0 0 0 0 0 0 0 0 0 0 0 0 0 0
0 0 0 0 0 0 0 0 0 0 0 0 0 0 0 0 0 0 0 0 0 0 0 0 0 0 0 0 0 0 0 0 0 0 0 0 0 0 0 0 0 0 0 0
Wind_Speed
5 3 3 6 7 8 9 9 9 9 8 10 6 5 4 3 2 2 2 2 3 3 3 3 3 3 4 4 4 4 4 5 5 6 6 6 6 6 6 6 7 7 7 7
3 2 3 6 8 9 10 8 9 8 11 7 3 1 2 2 2 3 3 3 3 3 3 4 4 4 4 4 4 4 4 5 6 6 6 6 6 6 6 6 7 7 7 7
4 2 3 8 8 9 6 6 7 10 10 2 1 2 3 4 3 3 3 3 3 3 4 4 4 4 4 4 4 4 5 6 6 6 6 7 7 7 7 7 7 7 8 7
1 2 8 7 1 4 5 5 6 6 4 2 3 2 2 3 3 3 3 3 3 3 3 3 3 4 4 4 4 5 5 6 6 6 7 7 7 7 7 6 7 7 8 8
2 3 9 6 2 3 4 6 5 7 6 3 1 2 3 2 2 3 3 3 3 3 3 3 3 4 4 4 5 5 6 6 6 6 7 7 7 7 7 6 7 7 8 7
3 4 8 5 1 1 3 6 3 5 5 3 2 1 4 1 0 1 2 2 2 2 2 3 4 3 3 5 5 6 6 7 7 7 7 8 8 7 6 6 7 8 8 7
5 6 10 4 2 3 3 6 1 3 3 4 4 4 2 1 1 1 1 2 2 2 2 3 4 3 4 5 6 7 7 7 7 7 7 8 7 6 6 6 6 6 8 7
5 6 10 2 5 6 6 1 1 1 2 3 3 1 1 1 1 2 2 2 2 2 3 4 3 3 5 6 7 7 7 7 7 7 6 6 6 6 6 5 6 6 6 7
8 8 2 4 5 3 2 2 2 2 1 2 2 2 1 1 2 2 2 2 2 2 4 4 3 3 5 7 6 7 7 7 7 7 6 6 6 7 6 4 4 5 5 6
4 6 3 3 3 1 1 2 1 1 1 2 2 2 1 2 2 2 3 3 3 3 4 5 5 5 5 6 6 6 7 7 7 6 6 6 5 5 5 5 4 5 6 6
5 5 3 3 3 3 1 1 1 1 0 1 2 1 2 2 2 2 3 3 3 3 5 6 6 6 6 6 5 6 7 6 6 6 6 5 5 4 6 5 6 7 6 6
7 5 4 3 1 1 2 1 1 1 1 1 1 1 1 2 2 2 3 3 4 4 5 6 6 7 6 5 5 5 6 6 5 5 5 5 5 6 9 10 12 13 13 12
3 0 2 1 1 0 1 1 1 1 1 1 1 0 1 2 2 3 3 4 4 5 6 6 6 7 7 6 6 5 6 6 5 5 5 5 5 6 7 9 11 12 13 15
1 1 1 1 0 1 1 1 2 2 1 0 0 1 1 2 3 3 4 5 5 5 5 6 6 7 6 6 6 6 6 7 7 5 5 5 5 6 6 7 8 7 9 14
1 1 2 1 2 2 2 2 2 2 1 1 1 1 1 2 3 4 5 5 5 5 5 5 6 7 6 5 6 6 6 5 5 5 5 5 5 6 6 7 7 7 7 9
1 2 2 2 1 1 1 1 1 1 1 1 2 2 2 3 4 4 4 4 4 6 6 6 7 7 6 6 6 6 5 9 8 5 5 5 5 5 6 6 6 6 7 7
2 1 1 1 1 1 1 1 1 1 1 2 2 3 3 3 4 5 5 4 4 6 6 6 7 7 6 6 6 5 5 6 10 7 5 5 5 5 6 6 6 6 6 9
3 3 3 3 3 2 1 1 1 1 2 2 2 2 2 3 5 6 6 5 5 6 6 6 6 7 6 6 5 4 5 4 5 5 5 5 6 5 5 6 6 7 7 8
1 1 1 1 1 1 1 1 1 2 2 1 1 2 3 4 5 5 5 5 5 7 7 6 11 8 6 7 8 4 5 5 5 5 5 8 7 5 5 6 6 6 7 7
2 2 2 1 1 1 0 1 1 1 2 1 2 3 4 5 5 5 5 5 5 5 7 8 7 6 6 7 9 4 4 5 5 5 5 5 5 6 6 6 6 6 6 6
1 1 1 1 1 1 0 1 1 2 2 2 2 3 5 5 4 4 4 6 5 6 6 9 6 5 6 7 7 3 3 4 5 5 5 5 5 6 6 6 6 7 6 6
0 0 0 0 1 1 2 1 1 2 2 2 3 3 4 5 5 5 5 5 5 9 6 4 5 8 10 9 3 3 4 5 5 4 5 5 5 6 6 6 6 6 6 6
0 0 0 1 1 1 2 2 2 2 2 3 4 4 4 5 4 4 5 4 4 9 7 4 9 13 13 6 3 4 4 5 5 5 5 5 5 5 6 6 6 6 6 6
0 0 1 1 0 1 2 3 3 2 3 4 4 4 4 4 4 3 4 8 11 11 5 8 13 13 12 4 4 4 4 5 5 5 5 5 5 5 5 6 6 6 6 7
0 0 0 1 1 2 3 3 3 3 3 3 4 4 3 3 3 4 4 5 9 9 5 8 12 12 7 4 4 5 5 5 6 5 5 5 5 5 5 6 6 6 6 6
1 1 1 2 2 2 2 2 2 3 3 4 4 3 3 3 3 3 3 4 6 8 6 4 5 7 5 5 5 5 5 6 6 5 5 6 6 6 6 6 7 6 6 7
1 1 1 2 2 2 2 2 2 3 3 3 4 4 3 3 3 4 4 4 4 5 4 4 4 4 5 5 5 5 5 5 5 5 5 5 5 5 6 7 6 6 6 7
Wind_Direction
259 268 221 226 223 198 204 209 215 239 243 263 258 250 245 228 220 228 245 247 248 251 261 273 284 290 291 293 296 296 298 295 290 292 291 291 291 291 291 293 294 292 293 289
281 274 255 260 244 222 224 230 239 259 269 264 263 252 253 246 229 240 255 260 262 262 265 272 279 287 294 295 297 298 292 289 291 295 295 293 291 292 294 295 294 292 292 290
266 317 334 264 232 208 206 211 202 230 246 250 260 245 241 243 236 244 262 266 263 266 265 268 272 278 280 284 294 294 288 290 294 296 296 294 294 296 295 294 292 290 290 286
266 22 247 246 186 188 203 238 222 237 253 230 223 260 280 248 224 246 266 267 269 270 276 282 284 286 287 293 294 290 289 292 296 297 296 297 295 292 291 289 288 286 289 286
171 245 276 287 225 172 191 268 225 223 241 242 158 352 311 264 207 227 250 261 267 271 283 295 298 297 300 300 298 293 294 298 299 297 296 297 294 293 290 289 289 287 288 285
166 215 250 252 191 154 100 290 251 201 218 210 124 289 277 304 215 268 285 290 289 303 315 306 302 304 302 301 302 298 299 299 298 297 297 295 291 292 292 289 288 291 291 287
200 232 262 254 177 127 174 256 248 179 197 176 189 215 240 318 330 300 309 313 317 318 312 301 307 312 305 304 297 297 303 302 300 299 296 292 292 294 292 291 293 291 291 290
178 215 254 185 141 184 216 265 149 172 183 188 208 240 271 291 311 327 332 334 327 316 309 314 317 312 306 302 301 307 307 304 302 301 299 302 301 301 300 294 294 293 293 295
196 217 250 172 193 212 180 207 227 199 207 176 196 239 263 290 299 313 320 318 317 303 306 315 315 306 298 301 309 312 310 306 304 305 304 304 302 303 305 300 292 293 293 295
244 260 251 237 243 251 188 208 223 181 171 166 208 233 262 279 300 313 317 313 314 314 311 311 313 310 297 303 310 310 307 306 307 308 306 304 302 300 302 296 293 293 292 295
252 270 304 276 235 228 199 162 102 55 101 186 189 244 255 274 288 295 306 311 308 305 302 304 310 308 308 312 312 310 306 303 306 306 302 303 302 295 296 282 285 293 292 289
231 225 205 250 282 180 177 206 204 172 339 346 198 239 267 280 287 293 299 306 308 304 303 304 308 307 308 309 308 306 308 308 305 304 304 306 307 309 306 304 305 303 304 302
233 155 194 245 331 119 163 185 170 166 188 253 308 264 276 288 298 303 304 304 299 297 298 301 305 305 308 310 308 301 298 302 301 304 308 309 310 311 313 317 313 310 311 313
219 133 244 254 273 75 96 89 81 71 63 77 334 342 317 298 303 304 299 297 296 298 300 301 302 302 306 307 305 301 298 300 305 300 303 304 306 307 308 312 317 317 318 319
348 169 176 113 79 72 75 82 70 39 17 1 353 320 306 299 297 297 298 304 309 305 303 305 303 302 309 309 309 305 304 302 300 299 300 302 307 308 308 310 310 313 317 319
91 90 107 113 118 92 83 101 109 307 322 320 317 307 299 291 291 296 301 305 305 304 305 306 300 301 308 309 309 305 300 306 312 306 304 307 309 309 310 310 310 311 314 317
146 167 176 195 208 213 228 231 228 248 273 285 291 304 310 308 305 305 305 301 290 288 292 295 297 304 305 302 300 299 299 303 312 312 307 306 306 305 305 305 307 308 310 313
192 194 186 188 197 212 246 264 264 269 268 270 292 307 308 306 301 302 306 310 310 306 299 296 300 305 303 306 303 298 300 301 303 304 304 306 304 303 306 308 310 311 311 315
121 130 136 139 163 181 209 240 262 272 282 285 289 291 291 292 293 298 305 310 310 308 310 311 316 321 312 309 313 301 303 305 306 307 308 312 317 316 311 308 308 309 310 313
86 87 92 77 61 94 208 269 268 286 292 286 288 297 301 300 300 302 302 293 281 278 293 305 311 310 308 304 311 301 302 305 308 309 310 308 308 309 309 308 308 308 309 310
81 73 67 58 27 8 326 268 255 283 294 288 277 284 290 297 299 299 299 298 297 298 302 312 317 308 303 304 311 310 309 309 307 305 306 307 306 307 307 308 309 310 310 310
87 82 32 29 12 329 320 305 277 280 290 294 289 289 296 302 305 299 279 272 293 312 319 307 305 308 313 319 322 316 310 308 305 304 303 304 304 305 307 311 312 311 311 311
266 242 278 289 277 293 316 313 293 284 285 287 288 287 286 287 288 292 300 301 304 312 319 307 312 319 328 342 334 320 315 312 309 306 304 303 302 303 306 309 308 308 309 308
339 326 307 309 332 332 315 307 301 292 285 282 278 278 281 290 288 266 273 306 316 318 316 312 322 328 336 344 323 315 311 309 307 303 301 300 302 304 305 305 305 305 304 304
18 347 347 344 321 295 292 302 308 305 301 297 295 290 280 264 270 290 296 297 309 319 316 316 324 330 335 320 315 312 308 304 303 304 305 307 306 304 302 302 301 301 301 300
1 315 292 278 274 284 295 300 300 302 306 307 306 301 300 296 288 292 297 300 303 316 318 311 313 320 317 313 310 309 307 309 314 315 308 305 303 301 300 301 300 298 297 296
7 348 331 322 317 310 303 296 295 298 299 298 302 306 310 312 309 308 307 307 309 309 307 309 310 309 310 312 311 310 310 309 306 305 305 303 300 298 298 297 297 297 297 296